Temperature
1 1 1 1 1 0 0 1 1 1 1 -0 -1 -1 -1 -2 -2 -3 -3 -3 -3 -2 -2 -2 -1 -1 -0 0 0 1 1 2 2 2 2 2 3 3 3 3 3 3 3 3
-0 1 1 0 0 -0 -0 -0 -0 -0 -1 -1 -2 -2 -3 -3 -3 -3 -4 -4 -4 -3 -3 -3 -2 -2 -1 -1 -0 0 0 1 1 1 2 2 2 2 3 3 3 3 3 3
0 0 -0 -0 -1 -1 -1 -2 -2 -2 -2 -2 -3 -3 -4 -4 -4 -5 -5 -5 -5 -4 -4 -3 -3 -2 -2 -1 -1 -1 -0 0 0 1 1 1 2 2 2 2 2 2 2 2
-1 -1 -1 -1 -2 -2 -2 -3 -3 -3 -3 -4 -4 -4 -4 -5 -5 -5 -6 -6 -5 -5 -4 -4 -3 -3 -2 -2 -1 -1 -1 -1 -0 -0 0 1 1 1 1 1 1 1 1 1
-1 -1 -1 -2 -2 -3 -3 -3 -4 -4 -4 -5 -5 -4 -3 -5 -6 -6 -6 -6 -6 -5 -5 -4 -4 -3 -3 -2 -2 -1 -1 -1 -1 -1 -0 -0 0 0 0 1 1 1 1 1
-2 -2 -2 -2 -3 -4 -3 -3 -4 -5 -5 -5 -6 -4 -4 -6 -6 -7 -6 -6 -6 -5 -5 -5 -4 -4 -3 -3 -2 -2 -2 -1 -1 -1 -1 -1 -0 -0 -0 -0 0 0 0 0
-2 -2 -2 -3 -4 -3 -3 -4 -5 -6 -6 -6 -6 -6 -7 -7 -7 -7 -6 -6 -6 -6 -5 -5 -5 -4 -4 -3 -3 -3 -2 -2 -2 -2 -1 -1 -1 -1 -1 -1 -1 -1 -1 -0
-3 -3 -3 -4 -4 -4 -5 -6 -6 -7 -7 -7 -7 -7 -7 -7 -7 -7 -7 -6 -6 -6 -6 -5 -5 -5 -4 -4 -4 -3 -3 -3 -2 -2 -2 -2 -2 -1 -1 -1 -1 -1 -1 -1
-4 -3 -4 -6 -6 -6 -7 -7 -7 -7 -8 -8 -8 -8 -8 -8 -8 -8 -7 -7 -7 -7 -6 -6 -5 -5 -5 -4 -4 -4 -3 -3 -3 -3 -2 -2 -2 -2 -2 -2 -2 -2 -2 -2
-5 -4 -5 -6 -6 -7 -7 -7 -8 -8 -8 -9 -9 -9 -9 -9 -9 -8 -8 -8 -7 -7 -7 -6 -6 -5 -5 -5 -5 -4 -4 -4 -3 -3 -3 -3 -3 -3 -3 -3 -3 -2 -2 -2
-5 -5 -6 -6 -7 -7 -8 -8 -8 -9 -9 -9 -9 -9 -9 -9 -9 -9 -8 -8 -8 -8 -7 -7 -6 -6 -5 -5 -5 -5 -5 -4 -4 -4 -4 -4 -3 -3 -3 -3 -3 -3 -3 -3
-5 -6 -6 -7 -7 -8 -8 -9 -9 -9 -9 -9 -9 -10 -10 -10 -9 -9 -9 -8 -8 -8 -8 -7 -7 -6 -6 -6 -6 -5 -5 -5 -5 -4 -4 -4 -4 -4 -4 -4 -4 -3 -3 -3
-7 -7 -8 -8 -8 -8 -9 -9 -9 -9 -9 -9 -9 -10 -10 -10 -10 -9 -9 -9 -9 -8 -8 -8 -7 -7 -6 -6 -6 -6 -6 -6 -5 -5 -5 -5 -5 -5 -5 -4 -4 -4 -4 -4
-8 -8 -8 -8 -9 -9 -9 -9 -9 -9 -9 -10 -10 -10 -10 -10 -10 -10 -9 -9 -9 -9 -8 -8 -8 -7 -7 -7 -6 -6 -6 -6 -6 -6 -5 -5 -5 -5 -5 -5 -5 -5 -4 -4
-8 -8 -9 -9 -9 -9 -9 -10 -10 -10 -10 -10 -10 -10 -10 -10 -10 -10 -10 -9 -9 -9 -9 -8 -8 -8 -7 -7 -7 -7 -6 -6 -6 -6 -6 -6 -6 -6 -6 -6 -5 -5 -5 -5
-8 -9 -9 -9 -9 -9 -10 -10 -10 -10 -10 -10 -10 -10 -10 -10 -10 -10 -10 -10 -10 -9 -9 -9 -8 -8 -8 -8 -7 -7 -7 -7 -7 -7 -6 -6 -6 -6 -6 -6 -6 -6 -6 -5
-9 -9 -9 -9 -10 -10 -10 -10 -11 -11 -11 -11 -11 -10 -10 -10 -10 -10 -10 -10 -10 -10 -10 -9 -9 -8 -8 -8 -8 -8 -8 -7 -7 -7 -7 -7 -6 -6 -6 -6 -6 -6 -6 -6
-9 -9 -9 -10 -10 -10 -10 -10 -11 -11 -11 -11 -11 -11 -11 -11 -11 -11 -10 -10 -10 -10 -10 -10 -9 -9 -9 -8 -8 -8 -8 -8 -8 -8 -7 -7 -7 -7 -7 -7 -7 -7 -7 -7
-9 -9 -10 -10 -10 -11 -11 -11 -11 -11 -11 -11 -11 -11 -11 -11 -11 -11 -11 -11 -11 -10 -10 -10 -10 -9 -9 -9 -9 -9 -9 -9 -8 -8 -8 -8 -8 -7 -7 -7 -7 -7 -7 -7
-9 -10 -10 -10 -10 -11 -11 -11 -11 -11 -11 -11 -11 -11 -11 -11 -11 -11 -11 -11 -11 -11 -11 -10 -10 -10 -10 -9 -9 -9 -9 -9 -9 -9 -9 -8 -8 -8 -8 -8 -8 -8 -8 -8
-10 -10 -10 -10 -11 -11 -11 -11 -11 -11 -11 -12 -12 -12 -12 -12 -12 -12 -12 -12 -11 -11 -11 -11 -11 -10 -10 -10 -10 -10 -10 -9 -9 -9 -9 -9 -9 -9 -8 -8 -8 -8 -8 -8
-10 -10 -10 -11 -11 -11 -11 -11 -11 -12 -12 -12 -12 -12 -12 -12 -12 -12 -12 -12 -12 -12 -12 -11 -11 -11 -11 -11 -10 -10 -10 -10 -10 -10 -10 -9 -9 -9 -9 -9 -9 -9 -9 -9
-11 -11 -11 -11 -11 -11 -11 -11 -12 -12 -12 -12 -12 -12 -13 -13 -13 -13 -13 -12 -12 -12 -12 -12 -12 -12 -11 -11 -11 -11 -11 -10 -10 -10 -10 -10 -10 -10 -10 -9 -9 -9 -9 -9
-11 -11 -11 -11 -11 -11 -11 -12 -12 -12 -12 -12 -13 -13 -13 -13 -13 -13 -13 -13 -13 -12 -12 -12 -12 -12 -12 -11 -11 -11 -11 -11 -11 -11 -10 -10 -10 -10 -10 -10 -10 -10 -10 -9
-11 -11 -11 -12 -12 -12 -12 -12 -12 -12 -12 -12 -13 -13 -13 -13 -13 -13 -13 -13 -13 -13 -12 -12 -12 -12 -12 -12 -12 -12 -11 -11 -11 -11 -11 -11 -11 -11 -10 -10 -10 -10 -10 -10
-12 -12 -12 -12 -12 -12 -13 -13 -13 -13 -13 -13 -13 -13 -13 -13 -13 -13 -13 -13 -13 -13 -13 -13 -12 -12 -12 -12 -12 -12 -12 -12 -12 -12 -11 -11 -11 -11 -11 -11 -11 -10 -10 -10
-12 -12 -12 -12 -13 -13 -13 -13 -13 -13 -13 -14 -14 -14 -14 -14 -14 -14 -13 -13 -13 -13 -13 -13 -13 -13 -13 -13 -12 -12 -12 -12 -12 -12 -12 -12 -12 -11 -11 -11 -11 -11 -11 -11
Wind_Speed
8 8 7 7 7 6 5 7 8 10 10 11 12 13 14 14 14 13 13 13 13 12 11 11 10 9 8 7 7 6 4 3 3 3 3 3 3 3 3 3 3 4 4 4
6 5 4 6 7 6 6 7 8 10 9 9 11 12 13 14 14 14 14 15 14 14 13 12 11 10 8 7 7 6 5 4 4 3 3 3 3 3 2 3 3 3 4 4
5 4 5 5 4 3 3 5 5 6 8 12 13 14 14 13 13 14 15 16 15 14 13 12 11 10 9 8 6 5 5 4 4 4 3 3 3 3 3 3 3 4 4 4
4 4 5 1 3 3 3 3 4 5 9 11 13 14 11 9 12 15 16 16 16 15 14 13 11 10 9 7 6 5 5 4 4 4 4 3 3 4 4 3 3 4 4 4
3 4 6 0 3 4 4 3 5 7 11 13 14 12 7 10 14 15 16 16 15 15 14 12 11 10 9 7 6 5 5 5 5 4 4 4 4 4 4 3 3 3 4 4
3 4 4 1 4 6 4 3 5 8 11 13 13 10 10 15 18 17 17 15 15 14 13 11 10 9 8 7 6 6 6 6 5 5 4 4 4 4 3 3 3 3 3 4
5 5 4 2 6 5 3 5 8 10 10 11 10 10 14 17 17 16 16 16 15 14 12 10 10 8 8 7 7 7 6 6 5 5 4 4 4 3 3 3 3 3 3 3
3 5 3 4 3 2 5 7 9 10 10 11 13 14 15 16 16 16 15 15 14 12 11 10 9 8 8 8 8 7 6 6 5 5 4 3 3 3 3 2 2 2 2 3
3 3 2 2 3 4 5 8 9 10 11 12 13 14 15 15 15 15 15 14 13 13 12 10 9 8 8 9 8 7 6 6 5 4 3 3 2 2 2 2 2 2 2 2
4 5 5 5 4 5 6 8 10 10 11 11 12 14 14 14 14 14 14 14 13 13 12 11 10 9 8 9 8 6 6 6 5 4 3 3 2 2 2 2 2 2 2 2
5 5 6 4 5 7 8 9 10 10 10 11 12 13 13 13 14 13 13 13 12 12 12 11 11 10 9 9 8 7 6 5 4 3 3 2 2 2 3 3 3 3 2 2
5 4 5 7 7 8 9 10 10 11 11 11 11 12 13 12 12 13 13 13 12 12 11 11 11 10 10 9 8 7 5 5 4 3 3 2 2 3 4 3 4 4 3 3
5 5 7 8 8 7 8 9 10 10 11 12 11 11 12 12 12 12 12 13 12 12 12 11 11 10 10 9 8 7 6 5 4 3 3 2 2 2 3 3 4 3 2 2
6 5 6 6 7 8 8 9 9 9 10 10 10 11 11 12 12 12 12 13 12 12 11 11 10 10 10 9 8 7 6 5 4 3 3 3 2 2 2 2 2 3 3 3
5 5 6 7 7 7 8 8 9 9 10 11 10 11 11 12 12 13 12 12 12 11 11 10 10 10 10 8 8 7 6 4 4 3 3 2 2 2 1 1 1 2 2 3
5 5 5 6 7 8 8 8 9 10 11 11 11 11 12 12 12 11 11 11 11 11 11 11 10 10 9 8 8 6 5 5 4 3 3 2 2 1 1 1 1 1 1 2
4 5 5 7 8 9 9 8 9 10 10 11 12 12 12 11 11 11 11 11 10 10 10 10 10 10 9 8 7 5 4 4 4 3 2 2 2 1 1 1 1 1 1 2
5 6 6 7 7 8 9 9 9 9 10 10 11 11 10 10 11 11 12 12 11 10 9 9 9 9 8 7 6 4 4 4 3 3 2 2 1 1 1 1 1 1 1 2
4 5 6 6 7 7 8 8 9 9 9 9 10 10 10 10 10 11 11 11 11 10 10 11 12 9 8 7 6 4 4 3 3 2 2 2 1 1 1 1 1 1 1 1
4 5 6 6 6 6 7 8 8 8 8 8 9 9 9 10 10 10 10 9 8 8 10 11 10 8 8 7 7 4 4 3 2 2 1 1 1 1 1 1 1 1 1 1
5 5 6 6 6 7 7 7 7 8 8 7 8 9 9 10 9 9 8 8 9 10 10 11 8 7 7 7 6 4 3 3 2 2 1 1 1 1 1 1 1 1 1 1
5 5 5 6 6 7 6 6 6 7 7 7 8 8 9 9 9 8 7 7 9 12 9 7 6 8 9 8 4 4 4 3 2 2 2 1 1 1 1 1 1 1 1 1
5 5 5 5 6 7 7 6 6 6 6 7 8 8 8 8 7 7 7 7 8 11 9 6 9 11 10 6 4 4 4 3 3 2 2 2 2 1 1 1 1 1 1 1
4 4 5 5 4 5 6 6 6 5 6 7 7 7 7 7 6 6 6 10 12 12 8 9 11 11 9 5 4 4 4 3 3 3 3 2 2 2 1 1 1 1 1 1
4 4 4 4 4 4 6 6 6 6 6 6 7 7 6 5 6 7 8 9 11 11 8 9 11 11 7 5 4 4 4 3 3 3 3 2 2 2 2 2 1 1 1 1
3 3 3 4 4 4 4 5 5 5 6 6 6 6 6 6 7 7 6 8 9 10 8 6 7 7 5 5 4 4 4 4 4 3 3 2 2 2 2 2 2 2 2 2
3 3 3 3 3 4 4 4 5 5 6 6 7 7 7 6 6 7 7 7 7 7 6 6 6 5 5 5 5 4 4 4 3 3 3 3 2 2 3 3 3 3 3 2
Wind_Direction
276 286 288 291 299 298 277 271 274 289 299 318 331 334 334 335 338 340 343 344 342 340 339 337 335 334 334 333 333 331 326 319 304 302 297 280 271 269 265 261 257 248 244 244
281 280 281 288 306 300 284 285 282 290 300 334 335 338 337 339 339 340 340 338 336 335 335 334 329 327 328 328 327 325 323 316 309 305 301 291 277 272 269 269 269 261 249 246
279 304 292 274 322 324 324 325 312 307 323 337 339 340 337 337 340 341 339 335 332 330 327 327 326 322 322 320 319 319 319 317 311 305 297 295 291 271 258 259 259 259 258 252
282 298 259 55 41 352 331 349 1 335 329 334 331 324 322 337 344 341 337 333 330 326 323 321 322 322 320 318 317 318 319 317 314 305 294 292 288 277 267 264 262 262 260 258
260 267 271 207 360 345 313 300 7 343 333 335 333 320 326 354 345 335 330 327 325 322 318 317 321 321 321 320 318 317 317 316 312 303 295 287 282 283 281 270 266 264 260 258
255 267 273 341 350 334 294 270 4 342 332 333 336 329 326 336 332 328 327 327 326 325 322 321 322 322 322 319 316 313 311 311 309 303 294 284 283 285 287 274 268 269 266 260
255 260 273 340 329 323 291 321 333 326 323 324 320 307 307 316 320 323 323 324 325 324 324 323 324 323 322 322 313 311 311 311 309 305 297 288 289 288 280 273 269 264 266 270
249 251 267 6 350 334 312 318 316 315 315 313 309 308 312 316 320 323 325 326 328 327 325 325 327 326 321 322 318 315 314 312 310 308 303 293 290 293 282 263 257 264 268 277
251 267 318 326 302 305 309 307 310 311 312 310 309 311 316 319 321 322 324 325 327 326 324 325 326 324 319 320 321 319 319 316 312 312 308 302 292 291 290 273 265 264 260 265
260 262 281 287 290 304 310 308 308 309 308 308 308 311 316 318 320 323 324 324 325 325 325 324 325 322 318 319 320 316 314 312 310 310 312 314 307 297 291 281 269 265 265 266
259 278 295 275 299 312 313 313 314 315 311 310 310 311 314 315 318 320 321 322 323 323 322 321 323 323 322 322 321 314 307 306 307 310 311 311 314 309 299 288 276 263 259 261
261 272 279 289 302 307 308 311 314 314 313 314 312 310 313 313 315 316 318 321 322 322 322 322 323 322 323 323 321 312 306 306 307 310 310 306 318 331 339 324 326 318 299 278
264 282 282 286 296 307 309 309 311 310 308 310 312 312 311 311 314 315 317 320 321 320 320 320 321 321 322 322 320 312 305 305 306 306 306 301 305 313 324 339 348 339 328 313
263 277 281 286 297 308 309 309 311 311 311 311 313 314 315 314 316 317 318 318 317 318 318 320 320 320 322 321 321 316 308 305 305 300 300 298 294 292 296 315 333 342 355 7
258 268 276 289 297 306 313 316 317 317 319 320 320 319 319 318 317 317 317 318 319 319 320 321 320 319 322 321 320 316 310 306 306 304 302 298 297 296 295 305 321 330 349 8
281 285 283 289 298 308 314 316 314 314 317 318 318 319 317 315 314 316 320 324 324 323 322 321 319 319 323 321 319 315 312 317 317 309 305 304 303 304 299 294 315 340 357 356
276 287 294 299 303 306 306 305 304 307 310 313 314 315 316 318 320 323 326 326 323 318 318 319 318 321 323 322 318 315 316 317 323 315 310 307 305 305 306 306 321 353 358 5
261 273 277 282 289 296 302 305 306 308 309 309 313 316 320 321 321 321 323 325 324 324 327 326 321 321 322 322 319 315 315 316 318 318 321 324 330 335 345 348 357 6 4 18
275 279 284 287 288 290 294 301 305 307 309 313 316 317 317 316 317 318 322 326 328 329 331 332 330 329 326 327 327 319 320 324 327 331 335 346 356 9 17 7 358 353 3 15
288 291 294 296 298 295 296 302 306 308 311 316 316 318 320 322 322 322 324 323 324 322 321 327 331 331 330 332 331 327 329 332 331 332 340 346 351 359 6 8 2 350 357 11
292 296 299 302 304 305 303 306 308 310 315 318 317 317 318 321 324 325 324 324 327 330 327 329 333 333 332 336 336 337 336 334 333 330 331 333 341 345 350 354 347 336 336 342
290 294 298 303 307 310 313 312 310 312 316 320 320 321 322 324 327 327 324 319 324 331 333 331 333 335 340 342 345 346 345 341 334 333 329 329 334 336 338 338 328 327 324 310
292 293 297 301 304 307 312 314 314 314 316 318 320 321 321 320 322 324 325 329 330 333 335 334 337 339 344 350 346 345 346 345 342 338 333 331 326 322 320 318 314 315 310 305
294 297 299 305 308 309 314 319 318 315 313 312 314 318 319 319 320 320 315 323 332 332 333 335 342 345 348 351 350 349 347 343 338 333 330 327 324 321 314 307 304 305 300 299
296 299 304 310 311 308 309 315 318 318 318 319 321 323 320 315 313 318 322 325 331 333 331 337 344 346 348 344 344 343 342 343 337 332 329 326 323 319 314 311 306 300 295 289
298 299 296 295 296 301 308 313 316 320 321 320 323 325 323 321 319 319 321 325 328 330 332 331 334 338 341 340 339 337 335 333 335 337 331 323 316 312 308 310 313 304 291 286
302 304 304 307 309 310 308 309 310 313 316 315 316 320 322 323 323 325 325 325 327 328 328 330 331 333 333 334 333 332 329 326 324 322 319 315 310 305 302 301 302 300 296 290
Height
1524 1523 1522 1521 1521 1520 1519 1515 1513 1507 1508 1508 1509 1507 1504 1500 1495 1491 1487 1483 1480 1476 1473 1469 1466 1464 1462 1461 1460 1459 1458 1458 1458 1459 1460 1460 1461 1462 1462 1463 1464 1464 1465 1465
1525 1521 1521 1521 1520 1519 1518 1517 1514 1511 1511 1513 1511 1508 1504 1500 1496 1491 1487 1483 1479 1476 1472 1468 1465 1463 1461 1459 1458 1457 1456 1456 1456 1456 1456 1457 1458 1458 1459 1459 1460 1460 1461 1461
1521 1521 1520 1517 1521 1521 1520 1520 1518 1515 1517 1515 1511 1508 1504 1500 1496 1492 1488 1483 1479 1475 1471 1467 1464 1462 1459 1458 1456 1455 1454 1454 1453 1453 1453 1454 1455 1455 1455 1456 1456 1456 1456 1457
1523 1523 1523 1522 1525 1524 1523 1522 1522 1521 1519 1516 1513 1508 1504 1500 1497 1492 1487 1482 1477 1473 1469 1466 1462 1460 1458 1456 1454 1453 1452 1451 1451 1451 1451 1451 1451 1452 1452 1452 1452 1452 1452 1453
1524 1521 1516 1523 1525 1525 1523 1521 1523 1521 1518 1515 1511 1505 1500 1498 1495 1492 1487 1482 1477 1472 1467 1464 1460 1458 1455 1453 1452 1451 1450 1449 1448 1448 1448 1448 1448 1448 1448 1448 1448 1449 1449 1449
1526 1523 1518 1522 1525 1524 1524 1519 1522 1521 1518 1515 1511 1504 1499 1497 1493 1488 1484 1479 1474 1470 1465 1461 1458 1455 1453 1451 1449 1448 1447 1447 1446 1446 1445 1445 1445 1445 1445 1445 1445 1445 1445 1445
1526 1523 1518 1526 1525 1524 1522 1521 1523 1520 1518 1515 1512 1509 1503 1496 1491 1486 1481 1477 1472 1468 1463 1460 1456 1454 1451 1449 1447 1446 1445 1445 1444 1443 1443 1442 1442 1442 1442 1442 1442 1441 1441 1441
1526 1524 1524 1527 1525 1526 1525 1524 1522 1519 1517 1513 1509 1505 1500 1494 1489 1483 1478 1474 1470 1465 1461 1458 1455 1452 1449 1447 1446 1445 1443 1442 1442 1441 1441 1440 1440 1439 1439 1439 1439 1438 1438 1438
1529 1528 1527 1527 1527 1526 1525 1523 1520 1517 1514 1510 1506 1501 1496 1491 1486 1481 1476 1472 1468 1464 1459 1456 1453 1451 1448 1446 1444 1443 1441 1440 1439 1439 1438 1438 1437 1437 1436 1436 1436 1436 1435 1435
1529 1526 1527 1526 1525 1524 1522 1520 1517 1514 1510 1507 1503 1498 1493 1488 1483 1478 1474 1470 1466 1462 1457 1454 1451 1449 1447 1445 1443 1441 1439 1438 1437 1436 1436 1435 1435 1435 1434 1434 1433 1433 1433 1433
1527 1526 1525 1524 1523 1521 1519 1516 1514 1510 1507 1504 1499 1495 1491 1486 1481 1476 1472 1468 1464 1460 1456 1453 1450 1447 1445 1443 1441 1439 1437 1436 1435 1434 1433 1433 1432 1432 1432 1432 1432 1431 1431 1431
1523 1524 1524 1522 1520 1519 1516 1513 1510 1507 1503 1500 1496 1492 1487 1483 1478 1474 1470 1466 1462 1458 1454 1451 1448 1445 1443 1441 1439 1437 1435 1434 1433 1432 1431 1430 1430 1429 1429 1430 1429 1429 1429 1429
1524 1522 1521 1519 1517 1515 1513 1510 1507 1504 1500 1496 1492 1489 1484 1479 1475 1471 1467 1463 1459 1456 1452 1449 1446 1443 1441 1439 1437 1435 1433 1432 1431 1430 1429 1428 1428 1427 1427 1427 1427 1426 1426 1426
1521 1520 1518 1516 1515 1512 1510 1507 1504 1500 1497 1493 1489 1485 1481 1476 1472 1468 1464 1460 1457 1453 1450 1446 1443 1441 1438 1436 1434 1432 1431 1430 1429 1428 1427 1426 1426 1426 1425 1424 1424 1424 1424 1424
1518 1517 1516 1513 1511 1509 1506 1503 1500 1497 1493 1490 1486 1482 1478 1473 1469 1465 1461 1457 1454 1450 1447 1444 1441 1438 1436 1434 1432 1430 1429 1427 1426 1426 1425 1424 1424 1424 1424 1423 1423 1422 1422 1422
1515 1514 1512 1511 1508 1506 1503 1500 1497 1493 1490 1486 1482 1479 1475 1471 1466 1462 1458 1455 1451 1447 1444 1441 1438 1436 1434 1432 1430 1428 1427 1425 1424 1424 1423 1422 1422 1422 1422 1421 1421 1421 1421 1421
1512 1511 1509 1507 1505 1502 1500 1497 1494 1491 1487 1483 1480 1476 1472 1467 1463 1459 1455 1452 1449 1445 1442 1439 1436 1434 1432 1430 1428 1426 1424 1423 1422 1422 1421 1420 1420 1420 1420 1420 1420 1420 1420 1420
1510 1508 1507 1505 1502 1499 1497 1494 1491 1488 1484 1481 1477 1473 1469 1465 1461 1457 1453 1449 1446 1443 1440 1437 1434 1432 1430 1428 1426 1424 1423 1421 1421 1420 1419 1419 1419 1419 1419 1419 1419 1419 1419 1419
1507 1505 1503 1501 1499 1497 1494 1491 1488 1485 1481 1478 1474 1470 1467 1463 1459 1455 1451 1447 1443 1440 1437 1435 1432 1430 1428 1426 1424 1423 1421 1420 1419 1418 1418 1418 1417 1417 1417 1418 1418 1418 1418 1418
1504 1502 1500 1498 1496 1494 1491 1488 1485 1482 1478 1475 1472 1468 1464 1461 1457 1453 1449 1446 1443 1439 1436 1434 1431 1428 1426 1424 1423 1421 1420 1419 1418 1417 1416 1416 1416 1416 1416 1416 1416 1417 1417 1417
1501 1499 1497 1495 1493 1491 1488 1485 1482 1479 1476 1472 1469 1466 1462 1459 1455 1451 1447 1444 1441 1438 1435 1432 1430 1427 1425 1423 1422 1420 1419 1418 1417 1416 1415 1415 1415 1415 1415 1415 1415 1415 1415 1416
1498 1496 1494 1492 1490 1487 1485 1482 1479 1476 1473 1470 1467 1464 1460 1456 1453 1449 1446 1443 1440 1437 1434 1431 1428 1426 1425 1423 1421 1419 1418 1417 1416 1415 1415 1414 1414 1414 1414 1414 1414 1414 1414 1414
1495 1493 1491 1489 1487 1485 1482 1479 1477 1474 1471 1468 1465 1462 1458 1455 1452 1448 1445 1442 1439 1436 1433 1430 1428 1426 1424 1422 1420 1418 1417 1416 1415 1415 1414 1413 1413 1413 1413 1413 1413 1413 1413 1413
1492 1490 1488 1486 1484 1482 1479 1477 1474 1471 1469 1466 1463 1460 1457 1453 1450 1447 1444 1441 1438 1435 1432 1429 1427 1425 1423 1421 1419 1418 1417 1416 1415 1414 1413 1413 1413 1412 1412 1412 1412 1412 1412 1412
1489 1487 1485 1483 1481 1479 1476 1474 1471 1469 1466 1463 1461 1458 1455 1452 1449 1446 1442 1439 1436 1433 1431 1428 1426 1424 1422 1420 1418 1417 1416 1415 1414 1413 1413 1412 1411 1411 1411 1411 1411 1410 1410 1410
1486 1484 1483 1481 1479 1476 1474 1472 1469 1467 1464 1461 1458 1456 1453 1450 1447 1444 1441 1438 1435 1432 1430 1427 1425 1423 1421 1419 1418 1416 1415 1414 1413 1412 1411 1411 1410 1410 1409 1409 1409 1409 1409 1408
1483 1481 1480 1478 1476 1474 1471 1469 1467 1464 1462 1459 1456 1454 1451 1448 1445 1442 1440 1437 1434 1431 1428 1426 1424 1422 1420 1419 1417 1416 1414 1413 1412 1411 1410 1409 1409 1408 1408 1408 1407 1407 1407 1406